This is the latest recevied weather packets stored in our database for station/object BM1CCR-13. If no packets are shown the sender has not sent any weather packets the latest 10 day(s).
| Time | Temp. | Humidity | Pressure | Rain* | Wind** | Luminosity | Snow |
|---|---|---|---|---|---|---|---|
| 1777450084 | 27.78° C | 77% | 998.5 hPa | 0 mm | - | - | - |
| 1777449803 | 27.78° C | 76% | 998.5 hPa | 0 mm | - | - | - |
| 1777449784 | 27.78° C | 75% | 998.6 hPa | 0 mm | - | - | - |
| 1777449484 | 27.78° C | 75% | 998.6 hPa | 0 mm | - | - | - |
| 1777449203 | 27.78° C | 75% | 998.5 hPa | 0 mm | - | - | - |
| 1777449184 | 27.78° C | 75% | 998.6 hPa | 0 mm | - | - | - |
| 1777448884 | 27.78° C | 75% | 998.4 hPa | 0 mm | - | - | - |
| 1777448603 | 27.78° C | 76% | 998 hPa | 0 mm | - | - | - |
| 1777448584 | 27.78° C | 76% | 997.9 hPa | 0 mm | - | - | - |
| 1777448284 | 27.78° C | 76% | 998 hPa | 0 mm | - | - | - |
| 1777447984 | 27.78° C | 76% | 998.3 hPa | 0 mm | - | - | - |
| 1777447684 | 27.78° C | 78% | 998.6 hPa | 0 mm | - | - | - |
| 1777447403 | 27.78° C | 79% | 998.4 hPa | 0 mm | - | - | - |
| 1777447383 | 27.78° C | 79% | 998.5 hPa | 0 mm | - | - | - |
| 1777447103 | 27.78° C | 80% | 998.6 hPa | 0 mm | - | - | - |
| 1777447083 | 27.78° C | 80% | 998.5 hPa | 0 mm | - | - | - |
| 1777446783 | 26.67° C | 81% | 998.4 hPa | 0 mm | - | - | - |
| 1777446483 | 26.67° C | 81% | 998.5 hPa | 0 mm | - | - | - |
| 1777446183 | 26.67° C | 80% | 998.7 hPa | 0 mm | - | - | - |
| 1777445883 | 26.67° C | 78% | 998.8 hPa | 0 mm | - | - | - |
| 1777445583 | 27.78° C | 76% | 998.8 hPa | 0 mm | - | - | - |
| 1777445283 | 27.78° C | 73% | 998.8 hPa | 0 mm | - | - | - |
| 1777445001 | 27.78° C | 69% | 998.8 hPa | 0 mm | - | - | - |
| 1777444983 | 27.78° C | 69% | 998.7 hPa | 0 mm | - | - | - |
| 1777444683 | 27.78° C | 63% | 998.7 hPa | 0 mm | - | - | - |
* Rain latest hour (hover to see other rain measurements)
** Current wind speed in m/s (hover to see current wind gust speed)